Location: Unspecified
(0.0000°N, 0.0000°E)
Time: 02:45:39
(UTC+00:00)

Hubble Space Telescope - Pass Details

Date: 11 July 2024
Orbit: 509 x 513 km, 28.5° (Epoch: 24 July)

Event Time Altitude Azimuth Distance (km) Brightness Sun altitude
Exits shadow 05:09:51 11° 292° (WNW) 1,641 2.8 -12.9°
Maximum altitude 05:13:35 66° 210° (SSW) 556 0.6 -12.0°
Drops below altitude 10° 05:17:32 10° 128° (SE) 1,719 3.8 -11.1°
Sets 05:19:47 0° 125° (SE) 2,605 4.8 -10.6°
